Home   Weather   Wodonga   Past weeks

Flag for Australia Past Weather in Wodonga, Victoria, Australia — Yesterday and Last 2 Weeks

Now
54 °F

Cool.


Feels Like: 54 °F
Forecast: 53 / 85 °F
Wind: 3 mph from South

Location: Albury Aeroport Aws

Current Time: Jan 21, 2017 at 9:10:40 am

Latest Report: Jan 21, 2017 at 7:00 am


Visibility: N/A

Pressure: 29.83 "Hg

Humidity: 89%

Dew Point: 51 °F

Location of WodongaLocation

Past Weather in Wodonga — Graph

°F

Wodonga Temperature Yesterday

Maximum temperature yesterday: 80 °F (at 4:00 pm)
Minimum temperature yesterday: 66 °F (at 6:00 am)
Average temperature yesterday: 72 °F

High & Low Weather Summary for the Past Weeks

 TemperatureHumidityPressure
High105 °F (Jan 17, 4:00 pm)100% (Jan 20, 9:00 am)30.01 "Hg (Jan 20, 9:00 am)
Low53 °F (Jan 15, 6:00 am)9% (Jan 17, 6:00 pm)29.38 "Hg (Jan 20, 4:00 am)
Average76 °F55%29.78 "Hg
* Reported Jan 6 7:00 am — Jan 21 7:00 am, Wodonga, Weather by CustomWeather, © 2017

Note: Actual official high and low records may vary slightly from our data, if they occured in-between our weather recording intervals... More about our weather records

Advertising

Wodonga Weather History for the Previous 24 Hours

Scroll right to see more
 ConditionsComfort  
Time TempWeatherWind HumidityBarometerVisibility
7:00 am
Sat, Jan 21
54 °FCool.3 mph89%29.83 "HgN/A
6:00 am53 °FCool.No wind90%29.80 "HgN/A
4:00 am55 °FCool.No wind82%29.74 "HgN/A
3:00 am57 °FCool.2 mph77%29.72 "HgN/A
1:00 am60 °FCool.5 mph71%29.69 "HgN/A
12:00 am62 °FCool.5 mph62%29.65 "HgN/A
10:00 pm
Fri, Jan 20
66 °FMild.14 mph54%29.59 "HgN/A
9:00 pm68 °FMild.15 mph50%29.56 "HgN/A
7:00 pm74 °FMild.16 mph48%29.47 "HgN/A
6:00 pm76 °FMild.17 mph47%29.44 "HgN/A
4:00 pm80 °FWarm.22 mph49%29.38 "HgN/A
3:00 pm78 °FOvercast.16 mph61%29.38 "HgN/A
1:00 pm72 °FMild.14 mph92%29.38 "HgN/A
12:00 pm70 °FLow clouds.13 mph98%29.38 "Hg2 mi
10:00 am68 °FMild.8 mph96%29.38 "HgN/A
9:00 am67 °FFog.8 mph100%29.41 "Hg5 mi
Weather by CustomWeather, © 2017

See weather overviewHow to use our weather pages